Date String (YYYY-MM-DD hh:mm:ss) UTC,Instrument flags,Ambient pressure (hPa),Sample flow (lpm),Bypass flow (lpm),Sample temperature (°C),Ambient temperature (°C),ASC tube jacket temperature (°C),LED temperature (°C),Box temperature (°C),Sample RH (%),Span deviation,Mass concentration (μg/m³),Mass concentration (μg/m³),Mass concentration (μg/m³)
DateTimeUTC,F1_M11,P_M11,Q1_M11,Q2_M11,T1_M11,T2_M11,T3_M11,T4_M11,T5_M11,U1_M11,ZSPAN_M11,X0_M11,X2_M11,X1_M11
2023-01-10 09:00:00,,0818.9,5.01,0.00,21.8,21.3,00.0,30.6,23.6,14.5,0000.0,0008.01,0004.13,0003.81
2023-01-10 09:01:00,,0818.8,5.00,0.00,21.9,22.4,00.0,30.6,23.9,14.0,0000.0,0008.24,0004.22,0003.90
2023-01-10 09:02:00,,0818.8,5.00,0.00,22.0,22.5,00.0,30.7,24.1,13.9,0000.0,0008.41,0004.31,0003.96
2023-01-10 09:03:00,,0818.7,4.98,0.00,22.1,22.0,00.0,30.8,24.0,13.3,0000.0,0008.58,0004.41,0004.02
2023-01-10 09:04:00,,0818.8,5.00,0.00,22.1,21.7,00.0,30.8,23.9,13.5,0000.0,0008.56,0004.44,0004.04
2023-01-10 09:05:00,,0818.8,5.01,0.00,22.0,21.3,00.0,30.8,23.8,14.0,0000.0,0008.63,0004.52,0004.12
2023-01-10 09:06:00,,0818.7,4.99,0.00,22.0,21.0,00.0,30.8,23.7,14.0,0000.0,0008.72,0004.59,0004.19
2023-01-10 09:07:00,,0818.4,5.01,0.00,22.0,20.8,00.0,30.8,23.7,15.2,0000.0,0008.25,0004.58,0004.19
2023-01-10 09:08:00,,0818.3,5.00,0.00,22.0,20.8,00.0,30.8,23.7,16.6,0000.0,0007.82,0004.37,0004.00
2023-01-10 09:09:00,,0818.9,5.02,0.00,22.0,20.7,00.0,30.8,23.6,15.7,0000.0,0007.27,0004.11,0003.77
2023-01-10 09:10:00,,0818.9,5.00,0.00,21.9,20.3,00.0,30.8,23.5,14.7,0000.0,0007.19,0004.02,0003.72
2023-01-10 09:11:00,,0818.9,5.00,0.00,21.8,20.0,00.0,30.8,23.4,14.5,0000.0,0007.34,0004.02,0003.72
2023-01-10 09:12:00,,0818.9,5.00,0.00,21.8,19.8,00.0,30.8,23.3,14.2,0000.0,0007.23,0004.07,0003.75
2023-01-10 09:13:00,,0818.9,5.00,0.00,21.7,19.6,00.0,30.8,23.2,14.2,0000.0,0007.30,0004.14,0003.82
2023-01-10 09:14:00,,0818.8,5.00,0.00,21.7,19.4,00.0,30.7,23.1,14.2,0000.0,0007.31,0004.17,0003.88
2023-01-10 09:15:00,,0818.8,5.00,0.00,21.6,19.3,00.0,30.7,23.0,14.1,0000.0,0007.56,0004.31,0003.99
2023-01-10 09:16:00,,0818.9,5.00,0.00,21.5,19.2,00.0,30.7,22.9,14.3,0000.0,0007.83,0004.42,0004.08
2023-01-10 09:17:00,,0818.8,5.01,0.00,21.5,19.3,00.0,30.6,22.9,14.2,0000.0,0008.49,0004.47,0004.14
2023-01-10 09:18:00,,0818.9,5.01,0.00,21.5,20.3,00.0,30.6,23.1,15.2,0000.0,0008.50,0004.39,0004.07
2023-01-10 09:19:00,,0819.0,5.00,0.00,21.6,21.6,00.0,30.5,23.5,14.9,0000.0,0009.63,0004.61,0004.27
2023-01-10 09:20:00,,0819.0,5.00,0.00,21.8,22.5,00.0,30.5,23.8,14.6,0000.0,0010.10,0004.93,0004.54
2023-01-10 09:21:00,,0818.9,4.98,0.00,21.8,21.8,00.0,30.6,23.7,14.6,0000.0,0010.01,0004.96,0004.55
2023-01-10 09:22:00,,0818.9,5.00,0.00,21.8,21.1,00.0,30.6,23.5,14.1,0000.0,0010.73,0004.91,0004.47
2023-01-10 09:23:00,,0818.9,5.00,0.00,21.7,20.5,00.0,30.6,23.3,13.9,0000.0,0010.59,0004.76,0004.34
2023-01-10 09:24:00,,0818.9,5.00,0.00,21.6,20.1,00.0,30.6,23.2,14.5,0000.0,0010.32,0004.56,0004.16
2023-01-10 09:25:00,,0818.8,5.02,0.00,21.6,19.9,00.0,30.6,23.1,15.2,0000.0,0010.20,0004.42,0004.03
2023-01-10 09:26:00,,0818.8,4.99,0.00,21.5,19.7,00.0,30.6,23.0,15.5,0000.0,0010.09,0004.26,0003.91
2023-01-10 09:27:00,,0818.8,5.03,0.00,21.5,19.6,00.0,30.6,23.0,15.7,0000.0,0009.69,0004.06,0003.73
2023-01-10 09:28:00,,0818.9,5.01,0.00,21.5,19.5,00.0,30.6,23.0,15.7,0000.0,0008.84,0003.88,0003.55
2023-01-10 09:29:00,,0818.9,5.00,0.00,21.4,19.4,00.0,30.5,22.9,15.6,0000.0,0008.80,0003.84,0003.52
2023-01-10 09:30:00,,0818.9,5.01,0.00,21.4,19.2,00.0,30.5,22.8,14.9,0000.0,0008.20,0003.85,0003.54
2023-01-10 09:31:00,,0819.0,5.00,0.00,21.3,19.1,00.0,30.5,22.7,14.8,0000.0,0008.73,0003.76,0003.47
2023-01-10 09:32:00,,0819.0,5.01,0.00,21.2,19.0,00.0,30.4,22.7,14.9,0000.0,0008.85,0003.65,0003.37
2023-01-10 09:33:00,,0818.9,5.00,0.00,21.2,19.5,00.0,30.4,22.8,14.7,0000.0,0007.92,0003.56,0003.29
2023-01-10 09:34:00,,0818.9,5.00,0.00,21.3,20.9,00.0,30.3,23.1,14.2,0000.0,0007.92,0003.51,0003.24
2023-01-10 09:35:00,,0818.9,5.00,0.00,21.5,22.1,00.0,30.3,23.4,14.2,0000.0,0008.02,0003.54,0003.27
2023-01-10 09:36:00,,0818.9,4.99,0.00,21.6,22.3,00.0,30.4,23.5,13.9,0000.0,0008.10,0003.61,0003.32
2023-01-10 09:37:00,,0818.9,4.98,0.00,21.6,21.6,00.0,30.4,23.4,14.1,0000.0,0008.01,0003.63,0003.32
2023-01-10 09:38:00,,0818.9,5.00,0.00,21.6,21.1,00.0,30.5,23.3,14.8,0000.0,0008.07,0003.66,0003.33
2023-01-10 09:39:00,,0818.9,5.00,0.00,21.6,20.8,00.0,30.5,23.3,15.2,0000.0,0008.17,0003.73,0003.38
2023-01-10 09:40:00,,0818.9,5.00,0.00,21.6,20.4,00.0,30.5,23.2,14.8,0000.0,0008.23,0003.90,0003.52
2023-01-10 09:41:00,,0818.8,5.00,0.00,21.5,20.0,00.0,30.5,23.0,14.8,0000.0,0008.04,0003.93,0003.55
2023-01-10 09:42:00,,0818.8,5.02,0.00,21.5,19.8,00.0,30.5,23.0,14.7,0000.0,0007.22,0003.92,0003.55
2023-01-10 09:43:00,,0818.9,5.03,0.00,21.4,19.6,00.0,30.5,22.9,14.8,0000.0,0007.73,0003.97,0003.59
2023-01-10 09:44:00,,0818.9,5.00,0.00,21.4,19.6,00.0,30.4,22.9,14.7,0000.0,0007.73,0003.98,0003.61
2023-01-10 09:45:00,,0818.9,5.00,0.00,21.4,19.5,00.0,30.4,22.9,14.9,0000.0,0007.75,0004.11,0003.72
2023-01-10 09:46:00,,0818.9,5.01,0.00,21.3,19.5,00.0,30.4,22.9,15.0,0000.0,0007.90,0004.26,0003.87
2023-01-10 09:47:00,,0818.9,5.01,0.00,21.3,19.4,00.0,30.4,22.8,14.7,0000.0,0007.99,0004.37,0003.99
2023-01-10 09:48:00,,0818.9,4.99,0.00,21.3,19.3,00.0,30.4,22.7,14.5,0000.0,0008.10,0004.48,0004.11
2023-01-10 09:49:00,,0818.9,5.01,0.00,21.2,19.3,00.0,30.3,22.7,14.7,0000.0,0008.49,0004.71,0004.31
2023-01-10 09:50:00,,0818.9,5.01,0.00,21.2,19.3,00.0,30.3,22.7,14.9,0000.0,0009.16,0004.87,0004.45
2023-01-10 09:51:00,,0818.8,5.01,0.00,21.2,19.4,00.0,30.3,22.7,14.8,0000.0,0009.33,0004.85,0004.44
2023-01-10 09:52:00,,0818.8,5.00,0.00,21.2,19.7,00.0,30.3,22.8,14.5,0000.0,0009.35,0004.74,0004.35
2023-01-10 09:53:00,,0818.8,5.00,0.00,21.3,21.0,00.0,30.2,23.1,14.4,0000.0,0009.20,0004.60,0004.22
2023-01-10 09:54:00,,0818.8,5.00,0.00,21.5,22.1,00.0,30.2,23.4,13.9,0000.0,0008.32,0004.38,0004.02
2023-01-10 09:55:00,,0818.8,5.00,0.00,21.6,22.1,00.0,30.3,23.6,13.6,0000.0,0008.09,0004.20,0003.86
2023-01-10 09:56:00,,0818.9,4.98,0.00,21.6,21.6,00.0,30.3,23.5,14.0,0000.0,0007.83,0003.99,0003.67
2023-01-10 09:57:00,,0818.9,5.00,0.00,21.6,21.0,00.0,30.4,23.4,14.4,0000.0,0007.74,0003.88,0003.53
2023-01-10 09:58:00,,0818.9,5.00,0.00,21.6,20.6,00.0,30.4,23.2,14.3,0000.0,0007.75,0003.83,0003.46
2023-01-10 09:59:00,,0818.8,5.01,0.00,21.5,20.3,00.0,30.4,23.1,14.2,0000.0,0007.68,0003.80,0003.43
